Saint Cloud, MN

5:18 AM CST on February 26, 2017 (GMT -0600)
Saint Cloud Regional

Weather History for KSTC - July, 2014

Change the Weather History Date:

Monday, July 28, 2014

  Actual Average Record
Temperature  
Mean Temperature 70 °F 70 °F  
Max Temperature 79 °F 82 °F 100 °F (1917)
Min Temperature 60 °F 58 °F 43 °F (2013)
Degree Days  
Heating Degree Days 0 1  
Month to date heating degree days 7 14  
Since 1 June heating degree days 33 92  
Since 1 July heating degree days 7 14  
Cooling Degree Days 5 6  
Month to date cooling degree days 160 167  
Year to date cooling degree days 337 287  
Since 1 June cooling degree days 293 262  
Growing Degree Days 20 (Base 50)    
Moisture  
Dew Point 55 °F    
Average Humidity 61    
Maximum Humidity 84    
Minimum Humidity 37    
Precipitation  
Precipitation 0.00 in 0.09 in 1.17 in (1942)
Month to date precipitation 1.25 2.99  
Year to date precipitation 23.78 15.47  
Snow  
Snow 0.00 in 0.00 in 0.00 in ()
Month to date snowfall 0.0 0.0  
Since 1 June snowfall 0.0 0.0  
Since 1 July snowfall 0.0 0.0  
Snow Depth 0.00 in    
Sea Level Pressure  
Sea Level Pressure 30.19 in    
Wind  
Wind Speed 7 mph (NW)    
Max Wind Speed 14 mph    
Max Gust Speed 20 mph    
Visibility 10 miles    
Events      
T = Trace of Precipitation, MM = Missing Value Source: NWS Daily Summary

Daily Weather History Graph

Daily Weather History Graph

Search for Another Location

Airport or City:

Trip Planner

Search our weather history database for the weather conditions in past years. The results will help you decide how hot, cold, wet, or windy it might be!

Date:

Astronomy

Jul. 28, 2014 Rise Set
Actual Time 5:55 AM CDT 8:49 PM CDT
Civil Twilight 5:20 AM CDT 9:23 PM CDT
Nautical Twilight 4:36 AM CDT 10:08 PM CDT
Astronomical Twilight 3:43 AM CDT 11:00 PM CDT
Moon 7:45 AM CDT (7/28) 9:21 PM CDT (7/28)
Length of Visible Light 16h 03m
Length of Day
14h 53m
Waxing Crescent, 3% of the Moon is Illuminated
Jul 28
Waxing Crescent
Aug 3
First Quarter
Aug 10
Full
Aug 17
Last Quarter
Aug 25
New

Hourly Weather History & Observations

Time (CDT) Temp. Dew Point Humidity Pressure Visibility Wind Dir Wind Speed Gust Speed Precip Events Conditions
12:53 AM 64.0 °F 57.9 °F 80% 30.17 in 10.0 mi NNW 3.5 mph - N/A   Overcast
1:53 AM 64.4 °F 57.2 °F 77% 30.16 in 10.0 mi NW 4.6 mph - N/A   Overcast
2:53 AM 64.0 °F 57.9 °F 80% 30.17 in 10.0 mi NNW 3.5 mph - N/A   Overcast
3:53 AM 63.0 °F 57.9 °F 84% 30.18 in 10.0 mi NW 4.6 mph - N/A   Overcast
4:53 AM 64.0 °F 57.9 °F 80% 30.19 in 10.0 mi NNW 4.6 mph - N/A   Overcast
5:53 AM 63.0 °F 57.9 °F 84% 30.21 in 10.0 mi NW 4.6 mph - N/A   Overcast
6:53 AM 63.0 °F 57.9 °F 84% 30.22 in 10.0 mi NW 5.8 mph - N/A   Overcast
7:53 AM 64.9 °F 57.0 °F 75% 30.22 in 10.0 mi NNW 5.8 mph - N/A   Overcast
8:53 AM 66.2 °F 57.2 °F 73% 30.21 in 10.0 mi NNW 8.1 mph - N/A   Overcast
9:53 AM 69.1 °F 57.9 °F 68% 30.24 in 10.0 mi NW 6.9 mph - N/A   Overcast
10:53 AM 73.0 °F 57.0 °F 57% 30.24 in 10.0 mi NW 6.9 mph - N/A   Overcast
11:53 AM 75.0 °F 52.0 °F 44% 30.23 in 10.0 mi NNW 9.2 mph - N/A   Partly Cloudy
12:53 PM 73.4 °F 51.8 °F 47% 30.20 in 10.0 mi NNW 9.2 mph - N/A   Mostly Cloudy
1:53 PM 75.2 °F 51.8 °F 44% 30.19 in 10.0 mi North 9.2 mph - N/A   Mostly Cloudy
2:53 PM 77.0 °F 53.6 °F 44% 30.18 in 10.0 mi NW 12.7 mph 16.1 mph N/A   Mostly Cloudy
3:53 PM 78.1 °F 52.0 °F 40% 30.19 in 10.0 mi Variable 6.9 mph - N/A   Scattered Clouds
4:53 PM 78.1 °F 50.0 °F 37% 30.19 in 10.0 mi NW 10.4 mph - N/A   Mostly Cloudy
5:53 PM 75.0 °F 52.0 °F 44% 30.17 in 10.0 mi NW 9.2 mph - N/A   Mostly Cloudy
6:53 PM 75.0 °F 54.0 °F 48% 30.16 in 10.0 mi North 9.2 mph - N/A   Clear
7:53 PM 71.1 °F 55.9 °F 59% 30.16 in 10.0 mi NNW 4.6 mph - N/A   Partly Cloudy
8:53 PM 68.0 °F 55.0 °F 63% 30.17 in 10.0 mi NW 4.6 mph - N/A   Partly Cloudy
9:53 PM 64.0 °F 55.0 °F 73% 30.17 in 10.0 mi NW 5.8 mph - N/A   Clear
10:53 PM 63.0 °F 55.0 °F 75% 30.17 in 10.0 mi NW 4.6 mph - N/A   Clear
11:53 PM 62.1 °F 55.0 °F 78% 30.17 in 10.0 mi NW 4.6 mph - N/A   Clear